Location: Quispamsis
(45.4447°N, 65.9414°W)
Time: 09:04:58
(UTC-03:00)

Daily predictions for brighter satellites

Satellite Brightness Start Highest point End
(mag) Time Altitude Azimuth Time Altitude Azimuth Time Altitude Azimuth
Cosmos 1464 Rocket 4.1 19:20:57 10° S 19:27:01 57° E 19:33:02 10° NNE
Cosmos 2034 Rocket 4.3 19:22:03 10° SSE 19:27:57 44° E 19:33:54 10° NNE
Cosmos 2369 Rocket 3.1 19:23:10 10° N 19:28:10 31° NE 19:33:10 10° ESE
SKYMED 2 3.6 19:26:17 10° NNE 19:30:38 69° ESE 19:34:57 10° S
Cosmos 1943 4.4 19:28:52 10° SE 19:32:49 20° E 19:36:47 10° NE
Cosmos 1346 3.9 19:30:13 10° NNE 19:32:52 28° ENE 19:35:30 10° SE
Helios 1A 4.0 19:31:57 10° ESE 19:35:30 27° ENE 19:39:03 10° N
TELKOM 3 3.4 19:32:43 10° WNW 19:36:06 83° SSW 19:38:27 10° ESE
Cosmos 1805 3.6 19:33:59 10° SSE 19:37:42 42° E 19:41:27 10° NNE
Spot 2 Rocket 4.0 19:33:38 10° SE 19:38:16 38° ENE 19:42:54 10° N
Cosmos 1603 3.9 19:35:11 10° S 19:40:43 52° ESE 19:46:18 10° NE
CZ-2C R/B 4.2 19:36:17 10° SSW 19:40:47 37° W 19:45:11 10° NNW
FREGAT/IRIS 3.0 19:40:58 10° SSE 19:43:55 43° ENE 19:46:53 10° N
In-Cosmos 22 4.3 19:38:35 10° N 19:44:24 80° E 19:50:08 10° SSE
USA 215 4.3 19:40:09 10° ENE 19:45:13 23° SE 19:50:15 10° S
Gbstr 26 Del rocket 4.2 19:42:08 10° S 19:45:51 28° SE 19:50:13 10° ENE
CZ-4C R/B 3.9 19:43:29 10° W 19:48:29 33° NW 19:54:06 10° NNE
Cosmos 1269 Rocket 4.3 19:44:43 10° S 19:49:44 46° ESE 19:54:47 10° NNE
Cosmos 1733 4.5 19:49:20 10° SE 19:52:14 21° E 19:55:09 10° NE
HJ-1C 3.9 19:49:56 10° SE 19:53:05 39° ENE 19:56:17 10° N
Cosmos 1674 3.3 19:52:21 10° N 19:56:00 37° ENE 19:59:36 10° SE
Cosmos 1953 2.2 19:53:04 10° S 19:57:02 74° E 20:01:01 10° NNE
Spot 1 4.2 19:53:56 10° SSE 19:58:28 61° ENE 20:02:46 10° N
Helios 1B rocket 3.0 19:54:43 10° NNE 19:58:30 34° E 20:02:16 10° SSE
Cosmos 1743 Rocket 3.6 19:54:58 10° N 19:59:23 58° ENE 20:03:42 10° SSE
ATLAS 5 CENTAUR R/B 2.3 19:56:42 10° SW 20:01:31 66° NW 20:06:48 10° NE
Cosmos 1470 3.4 20:00:40 10° SSE 20:04:10 33° E 20:07:41 10° NNE
Resurs 1-3 3.8 20:02:07 10° SE 20:06:20 49° ENE 20:10:36 10° N
CZ-4B DEB 3.8 20:06:34 19° ESE 20:08:03 27° ENE 20:10:52 10° N
Meteor 2-12 Rocket 4.4 20:05:01 10° S 20:11:09 80° E 20:17:20 10° N
Cosmos 1544 3.0 20:08:54 10° S 20:12:37 77° E 20:16:24 10° NNE
Resurs 01 Rocket 1.5 20:12:17 10° SSE 20:16:44 80° ENE 20:21:12 10° NNW
ERS-1 Rocket 4.4 20:16:02 17° ENE 20:17:00 18° ENE 20:20:17 10° NNE
METEOR-M 4.1 20:11:55 10° SSE 20:17:16 89° WSW 20:22:40 10° NNW
Elektron 1 4.4 20:15:14 10° SSW 20:17:54 35° ESE 20:19:08 25° ENE
COSMO-SKYMED 1 4.2 20:14:33 10° N 20:18:36 38° WNW 20:22:36 10° SW
Cosmos 2058 4.0 20:15:35 10° NNE 20:18:57 24° ENE 20:19:29 23° E
SL-8 R/B 3.6 20:18:23 10° WSW 20:23:09 75° SSE 20:26:10 23° ENE
SJ-6B 4.1 20:20:20 10° S 20:24:11 45° W 20:28:09 10° NNW
ALOS 2.3 20:20:19 10° SSE 20:24:51 56° ENE 20:29:27 10° N
FengYun 1-2 T 4.1 20:19:35 10° SSE 20:25:04 76° ENE 20:30:34 10° NNW
Nadezhda 4 Rocket 4.0 20:19:51 10° N 20:26:10 86° W 20:32:21 10° S
ASTEX 1 3.4 20:25:06 10° NNE 20:29:56 55° E 20:34:43 10° S
Cosmos 1110 Rocket 4.2 20:25:49 10° NNW 20:31:00 51° ENE 20:34:02 24° SE
Cosmos 2151 3.1 20:28:27 10° N 20:32:34 48° ENE 20:34:34 27° SE
ATLAS CENTAUR R/B 4.2 20:27:10 10° WSW 20:33:04 78° NW 20:53:25 10° NE
GP-B 3.4 20:31:25 10° NNE 20:35:40 43° E 20:37:51 25° SE
Meteor 1-29 2.8 20:32:28 10° NNE 20:36:00 78° ESE 20:39:28 10° S
Cosmos 1092 Rocket 3.9 20:30:54 10° N 20:37:08 85° E 20:43:17 10° S
SL-16 R/B 4.3 20:32:25 10° WSW 20:37:14 28° NW 20:42:05 10° N
Cosmos 839 Rocket 4.2 20:30:11 10° NW 20:38:04 86° NE 20:43:03 18° SE
Cosmos-2242 4.2 20:33:53 10° SSW 20:38:06 46° WNW 20:42:21 10° N
FENGYUN 3A 3.6 20:32:49 10° SSE 20:38:10 74° ENE 20:43:35 10° N
Cosmos 1805 Rocket 4.3 20:37:20 10° N 20:41:20 33° ENE 20:41:20 33° ENE
H-2A R/B 4.3 20:43:09 12° NE 20:43:09 12° NE 20:43:57 10° NNE
Cosmos 2221 3.5 20:45:07 28° NE 20:45:07 28° NE 20:47:46 10° NNE
CENTAUR R/B 2.4 20:39:51 10° SSW 20:45:56 75° ESE 20:52:51 10° NE
Cosmos 2026 Rocket 4.0 20:40:58 10° N 20:47:00 59° ENE 20:51:17 20° SSE
ISS -3.2 20:44:22 10° WSW 20:47:37 71° NNW 20:48:05 58° NNE
Cosmos 2142 Rocket 4.5 20:43:39 10° S 20:49:58 68° E 20:56:20 10° NNE
Cosmos 1655 Rocket 4.0 20:45:11 10° N 20:51:20 58° ENE 20:54:53 25° SSE
Abrixas 2.8 20:50:24 10° W 20:53:12 62° NW 20:53:12 62° NW
GPS 2-04 Rocket1 4.5 20:51:35 10° SW 20:53:27 16° S 20:53:27 16° S
Cosmos 2251 Rocket 3.5 20:49:24 10° S 20:54:28 52° ESE 20:59:34 10° NNE
Cosmos 1634 Rocket 3.9 20:49:53 10° S 20:56:07 80° E 21:02:19 10° N
CZ-2D R/B 3.3 20:57:19 37° S 20:58:47 81° WSW 21:02:42 10° NNW
Cosmos 1328 3.8 20:56:18 10° N 21:00:18 80° W 21:01:42 39° S
Cosmos 1943 Rocket 2.1 20:55:33 10° NNW 21:01:11 67° ENE 21:02:50 45° SE
Cosmos 1331 Rocket 3.9 20:55:58 10° NNW 21:01:19 80° ENE 21:03:18 40° SSE
SL-14 R/B 3.3 20:57:54 10° N 21:01:44 63° ENE 21:01:44 63° ENE
ERBS 2.7 21:02:50 10° NW 21:05:53 65° NW 21:05:53 65° NW
H-2A R/B 3.1 21:06:03 39° SSW 21:07:19 65° WSW 21:11:11 10° NNW
Aureole 3 4.3 21:03:28 10° N 21:09:09 47° ENE 21:09:09 47° ENE
Cosmos 2369 Rocket 3.1 21:06:59 10° NW 21:12:23 47° WSW 21:16:54 15° S
Cosmos 1302 Rocket 3.9 21:10:34 10° NNW 21:15:45 64° ENE 21:16:00 63° E
Cosmos 1943 3.5 21:10:44 10° SW 21:16:19 65° WNW 21:21:56 10° NNE
Cosmos 1939 Rocket 4.5 21:19:18 25° NNE 21:19:18 25° NNE 21:21:09 10° N
Cosmos 1666 Rocket 4.3 21:16:28 10° N 21:19:41 43° NNE 21:19:41 43° NNE
SJ-11-01 4.3 21:21:45 64° NE 21:21:45 64° NE 21:25:59 10° N
Envisat 3.2 21:28:38 55° NE 21:28:38 55° NE 21:32:57 10° N
USA 215 3.1 21:25:37 33° ENE 21:28:51 81° SE 21:35:24 10° SW
Gbstr 26 Del rocket 3.5 21:27:41 10° WSW 21:32:22 75° NNW 21:32:55 68° NNE
ATLAS 5 CENTAUR R/B 4.4 21:43:45 10° WNW 21:47:19 19° NNW 21:51:06 10° NNE
Sich 1 4.4 21:46:02 10° NNW 21:48:36 34° NNW 21:48:36 34° NNW
ERS-1 Rocket 3.4 21:56:03 58° NW 21:56:03 58° NW 22:00:16 10° NNW
H-2A R/B 4.3 21:59:00 14° NNE 21:59:00 14° NNE 21:59:58 10° NNE
Cosmos 1656 Rocket 4.1 21:55:52 10° NNW 22:00:08 57° NNW 22:00:08 57° NNW
UNK 4.1 21:44:58 10° WNW 22:01:53 90° SSE 22:02:05 85° ESE
H-2A R/B 4.4 22:20:18 21° NNW 22:20:18 21° NNW 22:21:48 10° NNW
CENTAUR R/B 4.1 22:31:36 10° W 22:37:18 32° NNW 22:43:41 10° NNE
Cosmos 1943 Rocket 4.3 22:40:28 10° NW 22:44:19 19° W 22:44:22 19° W
USA 215 4.3 23:13:01 39° NW 23:13:01 39° NW 23:17:42 10° W
